Location: Marcé
(47.5801°N, 0.3280°W)
Time: 22:51:18
(UTC+01:00)

S-56A Canister/Altair - Pass Details

Date: 09 December 2021
Orbit: 633 x 2499 km, 38.9° (Epoch: 16 January)

Event Time Altitude Azimuth Distance (km) Brightness Sun altitude
Rises 03:34:56 0° 271° (W) 4,691 - -49.5°
Reaches altitude 10° 03:38:54 10° 262° (W) 3,372 - -48.9°
Maximum altitude 03:45:35 30° 206° (SSW) 1,739 - -47.8°
Drops below altitude 10° 03:50:29 10° 146° (SE) 2,423 - -47.1°
Sets 03:52:53 0° 134° (SE) 3,194 - -46.7°
